Terug naar catalogus

FENGYUN 1C DEB

ActiefSSO
NORAD 31014·DEBRIS·🇨🇳 China

Gelanceerd May 10, 1999 vanaf Taiyuan Satellite Launch Center

Loading…

Volgende Passages (komende 24 uur)

TLE

VersSource: Space-Track

Epoch: Sep 14, 2026, 10:00 UTC

1 31014U 99025BDG 26257.41703595 -.00000256  00000-0 -14406-3 0  9993
2 31014  98.9013 229.5070 0088596 151.0432   1.1107 13.98583369996894

Volg FENGYUN 1C DEB in realtime met AllMySat

Download on the App Store